Lid_Strength_Index
1 1 1 1 1 1 1 1 1 2 1 1 1 0 -0 0 0 0 1 1 1 1
4 4 4 4 3 4 3 4 4 3 3 3 2 2 2 2 2 1 1 1 1 2
5 5 5 5 5 5 5 5 5 5 4 4 4 4 3 3 2 3 2 2 2 2
6 6 6 6 6 6 6 6 6 7 6 6 6 5 5 5 5 5 5 4 4 4
7 7 8 8 8 7 8 7 8 8 8 7 7 7 7 7 6 6 6 6 5 6
8 8 9 9 9 9 9 9 9 9 9 9 8 8 8 8 8 7 7 6 6 6
9 9 10 10 10 10 10 10 10 10 10 9 9 9 9 9 9 8 8 8 8 8
10 11 11 11 11 11 11 11 11 11 11 10 10 10 10 10 10 10 10 9 9 8
12 12 12 12 12 12 12 11 11 12 12 12 11 10 10 11 11 11 11 10 10 9
13 13 13 13 13 12 12 12 12 12 12 12 12 11 10 11 12 11 11 10 10 10
13 13 13 13 13 13 13 13 13 13 13 13 13 11 11 11 11 11 10 10 10 10
14 14 14 15 14 13 13 14 14 13 13 14 13 11 11 11 12 12 11 11 10 10
14 15 15 14 15 14 14 14 14 14 13 13 14 11 11 11 12 12 11 10 10 11
15 16 15 15 14 15 14 14 15 15 14 13 12 12 10 10 11 11 12 11 11 11